Regional Weather Roundup
Issued by NWS

Home | Current Version | Previous Version | Graphics & Text | Print | Product List | Glossary On
Versions: 1 2 3 4 5 6 7 8 9 10 11 12 13 14 15 16 17 18 19 20 21 22 23 24 25 26 27 28 29 30 31 32 33 34 35 36 37 38 39 40 41 42 43 44 45 46 47 48 49 50
000
ASUS43 KTOP 231908
RWRKS

WEATHER ROUNDUP FOR KANSAS
NATIONAL WEATHER SERVICE GOODLAND KS
100 PM CST THU NOV 23 2017

NOTE:  "FAIR" INDICATES FEW OR NO CLOUDS BELOW 12,000 FEET WITH NO
SIGNIFICANT WEATHER AND/OR OBSTRUCTIONS TO VISIBILITY.

KSZ001>006-013>018-027>032-041>047-232000-
NORTHWEST KANSAS

CITY           SKY/WX    TMP DP  RH WIND       PRES   REMARKS
GOODLAND       CLOUDY    69  39  33 W3        30.05F
HAYS           SUNNY     69  43  38 CALM      30.01F
HILL CITY      SUNNY     71  42  35 SW6       30.01F
RUSSELL        SUNNY     69  42  37 SW8       30.00F
$$

KSZ061>065-074>080-084>089-232000-
SOUTHWEST KANSAS

CITY           SKY/WX    TMP DP  RH WIND       PRES   REMARKS
DODGE CITY     SUNNY     71  40  32 W8        30.05F
ELKHART        SUNNY     73  43  34 W9G21     30.11F
GARDEN CITY    SUNNY     70  39  32 W9        30.06F
GREAT BEND     SUNNY     71  43  36 S5        30.02F
LIBERAL        SUNNY     70  41  34 NW9       30.09F
PRATT          SUNNY     71  37  28 CALM      30.03F
$$

KSZ066>073-081>083-090>101-232000-
SOUTHEAST KANSAS

CITY           SKY/WX    TMP DP  RH WIND       PRES   REMARKS
CHANUTE        SUNNY     60  31  33 S9        30.03F
COFFEYVILLE    SUNNY     60  28  29 SW7       30.04F
HUTCHINSON     SUNNY     71  39  31 S5        30.01F
MEDICINE LODGE   N/A     73  40  30 CALM      30.02F
NEWTON         SUNNY     68  38  33 SW6       30.02F
PARSONS        SUNNY     59  29  31 SW5       30.04F
WICHITA INTL   MOSUNNY   65  36  34 S3        30.02F
WICHITA JABRA    N/A     66  36  32 S3        30.02F
WICHITA MCCONL SUNNY     64  32  30 W5        30.02F
WINFIELD       SUNNY     63  32  31 SW7       30.04F
$$

KSZ007>012-019>026-033>040-048>060-102>105-232000-
NORTHEAST KANSAS

CITY           SKY/WX    TMP DP  RH WIND       PRES   REMARKS
CONCORDIA      SUNNY     70  40  33 SW6       29.99F
EMPORIA        SUNNY     66  35  31 VRB5      30.01F
LAWRENCE       SUNNY     60  34  37 CALM      30.00F
MANHATTAN      SUNNY     65  36  34 CALM      30.00F
MARYSVILLE     SUNNY     64  39  39 CALM      29.98F
OLATHE IND     SUNNY     58  34  40 SW5       30.00F
OLATHE EXE     SUNNY     57  34  41 SW7       29.99F
SALINA         SUNNY     66  39  37 S5        30.01F
TOPEKA BILLARD SUNNY     61  34  36 CALM      30.00F
TOPEKA FORBES  SUNNY     65  37  35 CALM      30.00F
$$




USA.gov is the U.S. government's official web portal to all federal, state and local government web resources and services.